Location: Boiro
(42.6475°N, 8.8834°W)
Time: 02:47:46
(UTC+01:00)

Vanguard 1 Rocket - Pass Details

Date: 10 December 2021
Orbit: 651 x 4224 km, 34.3° (Epoch: 21 January)

Event Time Altitude Azimuth Distance (km) Brightness Sun altitude
Rises 04:46:49 0° 260° (W) 4,340 - -44.6°
Reaches altitude 10° 04:49:11 10° 256° (WSW) 3,669 - -44.2°
Exits shadow 04:58:59 60° 179° (S) 2,567 9.4 -42.4°
Maximum altitude 04:58:59 60° 179° (S) 2,568 9.4 -42.4°
Drops below altitude 10° 05:18:09 10° 107° (ESE) 6,724 12.4 -38.9°
Sets 05:24:23 0° 104° (ESE) 8,116 13.1 -37.8°
